Location: Chrome
(40.5765°N, 74.2163°W)
Time: 16:20:21
(UTC+00:00)

Cosmos 2237 Rocket - Pass Details

Date: 06 December 2019
Orbit: 836 x 849 km, 71.0° (Epoch: 26 January)

Event Time Altitude Azimuth Distance (km) Brightness Sun altitude
Rises 23:33:01 0° 216° (SW) 3,398 6.0 -22.7°
Reaches altitude 10° 23:35:32 10° 221° (SW) 2,467 5.3 -23.2°
Maximum altitude 23:41:02 52° 298° (WNW) 1,049 2.9 -24.2°
Enters shadow 23:44:46 21° 7° (N) 1,842 3.8 -24.9°
